TimeCST,TemperatureF,Dew PointF,Humidity,Sea Level PressureIn,VisibilityMPH,Wind Direction,Wind SpeedMPH,Gust SpeedMPH,PrecipitationIn,Events,Conditions,WindDirDegrees,DateUTC
12:22 AM,66.2,64.4,94,30.27,7.0,East,4.6,-,N/A,,Overcast,90,2013-01-10 06:22:00
12:53 AM,66.0,64.0,93,30.28,7.0,East,5.8,-,N/A,,Overcast,90,2013-01-10 06:53:00
1:09 AM,66.2,64.4,94,30.27,7.0,East,5.8,-,N/A,,Overcast,80,2013-01-10 07:09:00
1:44 AM,66.2,64.4,94,30.26,6.0,East,6.9,-,N/A,,Mostly Cloudy,90,2013-01-10 07:44:00
1:53 AM,66.0,64.0,93,30.26,5.0,East,6.9,-,N/A,,Mostly Cloudy,90,2013-01-10 07:53:00
2:53 AM,64.9,63.0,93,30.25,5.0,ENE,4.6,-,N/A,,Partly Cloudy,60,2013-01-10 08:53:00
3:01 AM,64.4,62.6,94,30.25,4.0,ENE,6.9,-,N/A,,Mostly Cloudy,70,2013-01-10 09:01:00
3:17 AM,64.4,62.6,94,30.25,4.0,East,4.6,-,N/A,,Mostly Cloudy,80,2013-01-10 09:17:00
3:53 AM,68.0,66.0,93,30.24,7.0,ESE,6.9,-,N/A,,Overcast,110,2013-01-10 09:53:00
4:53 AM,70.0,66.9,90,30.22,8.0,East,11.5,20.7,N/A,,Overcast,100,2013-01-10 10:53:00
5:53 AM,69.1,66.0,90,30.22,8.0,ESE,12.7,20.7,N/A,,Overcast,120,2013-01-10 11:53:00
6:53 AM,68.0,64.9,90,30.22,7.0,ESE,15.0,-,N/A,,Overcast,120,2013-01-10 12:53:00
7:32 AM,66.2,64.4,94,30.23,4.0,ESE,16.1,24.2,N/A,,Overcast,120,2013-01-10 13:32:00
7:42 AM,66.2,64.4,94,30.23,1.8,ESE,16.1,23.0,N/A,,Overcast,120,2013-01-10 13:42:00
7:53 AM,66.0,64.0,93,30.25,1.0,ESE,13.8,24.2,N/A,,Overcast,120,2013-01-10 13:53:00
8:09 AM,66.2,64.4,94,30.25,0.8,ESE,13.8,21.9,N/A,,Overcast,120,2013-01-10 14:09:00
8:34 AM,66.2,64.4,94,30.25,1.0,ESE,16.1,-,N/A,,Overcast,110,2013-01-10 14:34:00
8:48 AM,66.2,64.4,94,30.26,0.8,ESE,12.7,-,N/A,,Overcast,120,2013-01-10 14:48:00
8:53 AM,66.0,64.0,93,30.26,0.5,ESE,12.7,-,N/A,Fog,Fog,110,2013-01-10 14:53:00
9:26 AM,66.2,64.4,94,30.28,1.5,ESE,10.4,-,N/A,,Overcast,120,2013-01-10 15:26:00
9:33 AM,66.2,64.4,94,30.28,3.0,ESE,11.5,-,N/A,,Overcast,120,2013-01-10 15:33:00
9:53 AM,66.9,64.0,90,30.28,5.0,ESE,12.7,-,N/A,,Overcast,120,2013-01-10 15:53:00
10:36 AM,66.2,64.4,94,30.28,1.8,SE,13.8,-,N/A,,Overcast,140,2013-01-10 16:36:00
10:53 AM,66.9,64.9,93,30.27,0.8,SE,11.5,-,N/A,,Overcast,130,2013-01-10 16:53:00
11:12 AM,66.2,64.4,94,30.26,1.2,SE,12.7,-,N/A,,Overcast,130,2013-01-10 17:12:00
11:50 AM,66.2,64.4,94,30.24,3.0,ESE,11.5,-,N/A,,Overcast,120,2013-01-10 17:50:00
11:51 AM,66.9,64.9,93,30.24,3.0,ESE,11.5,-,N/A,,Overcast,120,2013-01-10 17:51:00
12:53 PM,68.0,64.9,90,30.22,6.0,SE,9.2,-,N/A,,Overcast,130,2013-01-10 18:53:00
1:29 PM,68.0,64.4,88,30.21,2.0,ESE,11.5,-,N/A,,Overcast,120,2013-01-10 19:29:00
1:36 PM,68.0,64.4,88,30.22,1.8,ESE,9.2,-,N/A,,Overcast,120,2013-01-10 19:36:00
1:53 PM,68.0,64.9,90,30.21,1.8,ESE,11.5,-,N/A,,Overcast,120,2013-01-10 19:53:00
2:01 PM,66.2,64.4,94,30.21,2.0,ESE,10.4,-,N/A,,Overcast,120,2013-01-10 20:01:00
2:33 PM,68.0,64.4,88,30.20,1.8,ESE,9.2,-,N/A,,Overcast,120,2013-01-10 20:33:00
2:53 PM,66.9,64.0,90,30.21,1.5,ESE,9.2,-,N/A,,Overcast,120,2013-01-10 20:53:00
3:29 PM,66.2,64.4,94,30.22,0.5,ESE,11.5,-,N/A,Fog,Fog,120,2013-01-10 21:29:00
3:53 PM,66.0,64.0,93,30.21,0.2,ESE,9.2,-,N/A,Fog,Fog,120,2013-01-10 21:53:00
4:23 PM,66.2,64.4,94,30.21,1.8,SE,13.8,19.6,N/A,,Overcast,130,2013-01-10 22:23:00
4:31 PM,66.2,64.4,94,30.21,2.5,SE,11.5,-,N/A,,Overcast,130,2013-01-10 22:31:00
4:40 PM,66.2,64.4,94,30.21,4.0,SE,9.2,-,N/A,,Overcast,130,2013-01-10 22:40:00
4:53 PM,66.0,64.0,93,30.21,5.0,SE,12.7,19.6,N/A,,Overcast,130,2013-01-10 22:53:00
5:43 PM,66.2,62.6,88,30.20,7.0,ESE,12.7,-,N/A,,Overcast,120,2013-01-10 23:43:00
5:53 PM,66.0,63.0,90,30.19,7.0,ESE,12.7,-,N/A,,Overcast,120,2013-01-10 23:53:00
6:30 PM,66.2,64.4,94,30.19,9.0,ESE,15.0,-,N/A,,Overcast,120,2013-01-11 00:30:00
6:53 PM,66.9,64.0,90,30.19,9.0,SE,12.7,23.0,N/A,,Overcast,130,2013-01-11 00:53:00
7:14 PM,66.2,64.4,94,30.24,2.5,SW,8.1,-,0.04,Rain,Heavy Rain,220,2013-01-11 01:14:00
7:27 PM,66.2,62.6,88,30.22,1.8,SSE,11.5,18.4,0.17,Rain,Heavy Rain,160,2013-01-11 01:27:00
7:33 PM,68.0,62.6,83,30.22,3.0,South,12.7,20.7,0.18,Rain,Light Rain,170,2013-01-11 01:33:00
7:53 PM,69.1,64.9,87,30.23,5.0,South,8.1,-,0.20,Rain,Light Rain,170,2013-01-11 01:53:00
8:53 PM,66.0,62.1,87,30.23,6.0,SSE,10.4,-,0.04,Rain,Rain,160,2013-01-11 02:53:00
9:53 PM,64.9,62.1,90,30.23,5.0,SE,9.2,-,0.12,Rain,Rain,140,2013-01-11 03:53:00
10:53 PM,64.9,62.1,90,30.18,10.0,East,8.1,20.7,0.03,,Overcast,100,2013-01-11 04:53:00
11:53 PM,68.0,63.0,84,30.14,10.0,ESE,12.7,19.6,0.00,,Overcast,110,2013-01-11 05:53:00